Regional Weather Roundup
Issued by NWS Portland, ME

Current Version | Previous Version | Text Only | Print | Product List | Glossary Off
Versions: 1 2 3 4 5 6 7 8 9 10 11 12 13 14 15 16 17 18 19 20 21 22 23 24 25 26 27 28 29 30 31 32 33 34 35 36 37 38 39 40 41 42 43 44 45 46 47 48 49 50
000 ASUS41 KGYX 170310 RWRGYX WEATHER ROUNDUP FOR MAINE AND NEW HAMPSHIRE NATIONAL WEATHER SERVICE GRAY ME 1100 PM EDT WED AUG 16 2017 MEZ002-005-006-010-012-015-018-020-021-024-026-027-029-170400- MAINE CITY SKY/WX TMP DP RH WIND PRES REMARKS PORTLAND CLEAR 62 44 51 CALM 30.00R SANFORD CLEAR 49 44 83 SW5 30.01S BAR HARBOR CLEAR 61 47 59 NW5 29.96S WISCASSET CLEAR 58 47 66 CALM 30.01R ROCKLAND CLEAR 60 47 61 NW6 29.98R FRYEBURG CLEAR 54 48 80 W3 30.02R LEWISTONAUBURN CLEAR 61 46 57 CALM 30.01R AUGUSTA CLEAR 61 44 53 W5 30.00S WATERVILLE CLEAR 59 47 64 W6 29.96S BANGOR CLEAR 60 46 59 W7 29.97R GREENVILLE N/A 53 46 77 NW6 29.95S MILLINOCKET CLEAR 57 46 66 NW5 29.95R HOULTON CLEAR 56 45 66 W5 29.89S PRESQUE ISLE CLEAR 52 44 74 W6 29.89F FRENCHVILLE CLEAR 48 40 73 W7 29.86F CARIBOU CLEAR 53 43 68 W7 29.87F $$ NHZ002-005-008-009-011-012-014-170400- NEW HAMPSHIRE CITY SKY/WX TMP DP RH WIND PRES REMARKS PORTSMOUTH CLEAR 61 47 60 W5 30.00R ROCHESTER CLEAR 60 47 61 CALM 30.01R NASHUA CLEAR 63 53 70 CALM 30.03R MANCHESTER CLEAR 67 46 47 NW7 30.01R CONCORD CLEAR 61 47 59 CALM 30.03R LACONIA CLEAR 57 49 74 CALM 30.04S PLYMOUTH FAIR 51 49 93 CALM 30.04S BERLIN CLEAR 48 45 89 CALM 30.04R WHITEFIELD CLEAR 48 44 86 CALM 30.05R JAFFREY CLEAR 64 52 64 CALM 30.06R KEENE N/A N/A N/A N/A MISG N/A LEBANON CLEAR 54 51 90 CALM 30.05R MT WASHINGTON FOG 37 37 100 NW51 N/A VSB 0 $$ VTZ005-007-008-170400- VERMONT CITY SKY/WX TMP DP RH WIND PRES REMARKS ST JOHNSBURY N/A 53 52 96 MISG 30.03S MONTPELIER CLEAR 55 49 80 CALM 30.09F BURLINGTON CLEAR 58 53 84 E3 30.05S $$ MAZ007-012-024-CTZ003-RIZ002-NYZ038-NYZ072-170400- SOUTHERN NEW ENGLAND AND NY CITY SKY/WX TMP DP RH WIND PRES REMARKS BOSTON PTCLDY 72 47 40 N10 30.01R WORCESTER PTCLDY 68 50 52 NW6 30.05R NANTUCKET MOCLDY 68 66 93 CALM 30.00R PROVIDENCE PTCLDY 71 61 70 N5 30.01R HARTFORD CLEAR 67 58 72 N7 30.02R ALBANY CLEAR 65 57 75 N5 30.06R NEW YORK CITY PTCLDY 80 63 55 NW3 30.00R $$ ANZ081-ANZ082-ANZ150-NHZ014-MEZ023>029-170400- COASTAL MARINE OBSERVATIONS STATION/POSITION TIME TEMP WIND PRES WAVE AIR SEA DIR/SP/G HT/PER (UTC) (F) (DEG/KT/KT) (MB) (FT/S) MOUNT DESERT ROC 0300 62 1014.3R MATINICUS ROCK 0200 65 330/ 16/ 16 1014.1R ISLE OF SHOALS 0200 69 300/ 7/ 8 1015.3R JEFFREYS LEDGE 0206 68 N/A 3/13 CASHES LEDGE BUO 0150 70 69 1013.7 6/14 GEORGES BANK BUO 0150 63 63 1013.3 9/13 $$ .............KEY.............. WCI - WIND CHILL TC - TEMPERATURE IN CELSIUS VSB - VISIBILITY IN MILES HX - HEAT INDEX FAIR- INDICATES FEW OR NO CLOUDS BELOW 12,000 FT, WITH NO SIGNIFICANT WEATHER AND/OR OBSTRUCTIONS TO VISIBILITY.

USA.gov is the U.S. government's official web portal to all federal, state and local government web resources and services.